User: anonymous   Login
Location: Catstown
(52.4386°N, 7.2633°W)
Time: 02:40:30
(UTC+00:00)
Language:

ARGOS - Orbit

View from above orbital plane
View from above orbital plane
View from above satellite
View from above satellite

Ground track
Ground track

The orbit data is extracted from the following two-line orbital elements,

1 25634U 99008A   20338.64827963 -.00000002  00000-0  18672-4 0  9998
2 25634  98.4423   9.7373 0010905 142.7365 217.4570 14.19383843127970
Epoch (UTC): 03 December 2020 15:33:31
Eccentricity: 0.0010905
inclination: 98.4423°
perigee height: 819 km
apogee height: 835 km
right ascension of ascending node: 9.7373°
argument of perigee: 142.7365°
revolutions per day: 14.19383843
mean anomaly at epoch: 217.4570°
orbit number at epoch: 12797

The dashed part of the orbit path shows where the satellite is in the earth's shadow,  

DLR